CW2414 Weather Reports


time (UTC)temp
F
wind
direction
speed
knots
gust
knots
rain 1hr
in
rain 24hr
in
rain mn
in
humidity
%
barometer
mb
20260504231510 55 279 0.9 6.1 0.00 0.01 0.00 71 1005.6
20260504230008 55 257 1.7 7.0 0.00 0.01 0.00 69 1005.5
20260504224608 56 265 0.9 7.0 0.00 0.03 0.00 68 1005.2
20260504223007 56 280 0.9 7.0 0.00 0.03 0.00 66 1005.1
20260504221508 57 259 4.3 9.6 0.00 0.03 0.00 65 1004.9
20260504220005 57 5 1.7 7.8 0.00 0.03 0.00 65 1004.6
20260504214507 57 269 3.5 13.9 0.00 0.06 0.00 63 1004.5
20260504213004 58 243 4.3 11.3 0.00 0.06 0.00 62 1004.3
20260504211506 58 295 3.5 9.6 0.00 0.06 0.00 62 1004.2
20260504210003 58 264 0.9 9.6 0.00 0.06 0.00 62 1004.2
20260504204502 58 280 4.3 9.6 0.00 0.06 0.00 61 1003.9
20260504203002 58 258 6.1 13.0 0.00 0.06 0.00 61 1004.1
20260504201501 58 238 5.2 13.9 0.00 0.06 0.00 60 1004.2
20260504200002 58 211 7.8 13.0 0.00 0.06 0.00 62 1004.0
20260504194606 57 258 5.2 10.4 0.00 0.09 0.00 65 1004.0
20260504193109 56 209 5.2 13.9 0.00 0.09 0.00 68 1004.0
20260504191613 55 213 5.2 12.2 0.00 0.09 0.00 71 1004.2
20260504184557 53 285 4.3 10.4 0.00 0.18 0.00 75 1004.7
20260504183057 53 215 2.6 8.7 0.00 0.18 0.00 75 1004.6
20260504181559 54 236 4.3 15.6 0.00 0.18 0.00 66 1004.6
20260504180055 56 242 7.8 15.6 0.00 0.18 0.00 58 1004.3
20260504174554 57 230 4.3 13.9 0.00 0.31 0.00 52 1003.6
20260504173053 59 202 6.1 12.2 0.00 0.31 0.00 44 1003.2
20260504171554 60 207 7.0 12.2 0.00 0.31 0.00 41 1003.1
20260504120105 44 238 6.1 10.4 0.00 0.55 0.00 67 1006.4
20260504081524 38 241 1.7 10.4 0.00 0.76 0.00 86 1003.6
20260504044602 42 330 2.6 10.4 0.00 0.86 0.00 92 1001.9
20260504043052 42 301 3.5 11.3 0.00 0.86 0.00 93 1001.8
20260504041545 42 313 3.5 9.6 0.00 0.86 0.00 93 1001.7
20260504040045 43 247 1.7 9.6 0.00 0.86 0.00 93 1001.5
20260504034543 43 288 1.7 11.3 0.00 0.86 0.86 93 1001.5
20260504033041 43 286 5.2 11.3 0.00 0.86 0.86 94 1001.3
20260504031542 42 252 2.6 7.8 0.00 0.86 0.86 94 1001.1
20260504030040 42 280 3.5 7.8 0.00 0.86 0.86 94 1000.9
20260504024539 42 327 3.5 8.7 0.00 0.86 0.86 94 1000.9
20260504023038 42 251 1.7 8.7 0.00 0.86 0.86 94 1000.7
20260504021539 42 289 5.2 10.4 0.01 0.86 0.86 94 1000.6
20260504020037 42 320 3.5 12.2 0.01 0.86 0.86 94 1000.8
20260504014540 42 324 3.5 12.2 0.01 0.86 0.86 94 1000.7
20260504013047 42 273 4.3 10.4 0.01 0.86 0.86 94 1000.6
20260504011537 42 343 0.9 8.7 0.00 0.85 0.85 94 1000.5
20260504010036 42 319 3.5 10.4 0.00 0.85 0.85 95 1000.1
20260504004533 42 289 2.6 7.8 0.00 0.85 0.85 95 1000.0
20260504003035 42 286 2.6 9.6 0.00 0.85 0.85 95 999.9
20260504001537 42 330 3.5 13.0 0.00 0.85 0.85 95 999.7
20260504000030 42 279 2.6 11.3 0.00 0.85 0.85 95 999.5
20260503234529 42 269 2.6 11.3 0.00 0.85 0.85 95 999.5
20260503233028 42 215 0.9 7.8 0.01 0.85 0.85 95 999.3